| time (UTC) | temp C | wind direction | speed KPH | gust KPH | rain 1hr cm | rain 24hr cm | rain mn cm | humidity % | barometer mb |
| 20260903013002 | 13 | 227 | 0.0 | 0.0 | 0.00 | 0.00 | 0.00 | 91 | 1012.6 |
| 20260903011502 | 13 | 228 | 0.0 | 0.0 | 0.00 | 0.00 | 0.00 | 90 | 1012.6 |
| 20260903010003 | 14 | 228 | 0.0 | 0.0 | 0.00 | 0.00 | 0.00 | 90 | 1012.6 |
| 20260903004501 | 14 | 228 | 0.0 | 0.0 | 0.00 | 0.00 | 0.00 | 90 | 1012.6 |
| 20260903003100 | 13 | 228 | 0.0 | 0.0 | 0.00 | 0.00 | 0.00 | 90 | 1012.7 |
| 20260903001606 | 13 | 228 | 0.0 | 0.0 | 0.00 | 0.00 | 0.00 | 90 | 1012.8 |
| 20260903000100 | 13 | 228 | 0.0 | 0.0 | 0.00 | 0.00 | 0.00 | 90 | 1012.8 |
| 20260902234558 | 13 | 226 | 0.0 | 0.0 | 0.00 | 0.00 | 0.00 | 91 | 1012.8 |
| 20260902233057 | 13 | 221 | 0.0 | 0.0 | 0.00 | 0.00 | 0.00 | 90 | 1012.9 |
| 20260902231555 | 13 | 219 | 0.0 | 0.0 | 0.00 | 0.00 | 0.00 | 90 | 1013.0 |
| 20260902230059 | 13 | 219 | 0.0 | 0.0 | 0.00 | 0.00 | 0.00 | 91 | 1013.1 |
| 20260902224558 | 13 | 220 | 0.0 | 0.0 | 0.00 | 0.00 | 0.00 | 91 | 1013.1 |
| 20260902223055 | 13 | 262 | 0.0 | 0.0 | 0.00 | 0.00 | 0.00 | 91 | 1013.1 |
| 20260902221554 | 13 | 263 | 0.0 | 0.0 | 0.00 | 0.00 | 0.00 | 91 | 1013.1 |
| 20260902220056 | 14 | 263 | 0.0 | 0.0 | 0.00 | 0.00 | 0.00 | 91 | 1013.0 |
| 20260902214549 | 14 | 263 | 0.0 | 0.0 | 0.00 | 0.00 | 0.05 | 92 | 1012.9 |
| 20260902213050 | 14 | 263 | 0.0 | 0.0 | 0.00 | 0.00 | 0.05 | 92 | 1012.9 |
| 20260902211548 | 15 | 263 | 0.0 | 0.0 | 0.00 | 0.00 | 0.05 | 92 | 1012.8 |
| 20260902210055 | 15 | 263 | 0.0 | 0.0 | 0.00 | 0.00 | 0.05 | 92 | 1012.8 |
| 20260902204548 | 15 | 227 | 0.0 | 0.0 | 0.00 | 0.00 | 0.05 | 92 | 1012.8 |
| 20260902203048 | 15 | 226 | 0.0 | 0.0 | 0.00 | 0.00 | 0.05 | 92 | 1012.7 |
| 20260902201548 | 15 | 249 | 0.0 | 0.0 | 0.00 | 0.00 | 0.05 | 91 | 1012.9 |
| 20260902200048 | 15 | 229 | 0.0 | 0.0 | 0.00 | 0.00 | 0.05 | 91 | 1012.9 |
| 20260902194547 | 15 | 227 | 1.6 | 0.0 | 0.00 | 0.00 | 0.05 | 91 | 1013.0 |
| 20260902193046 | 15 | 225 | 0.0 | 0.0 | 0.00 | 0.00 | 0.05 | 91 | 1012.9 |
| 20260902191555 | 15 | 219 | 1.6 | 0.0 | 0.00 | 0.00 | 0.05 | 90 | 1012.9 |
| 20260902190053 | 15 | 228 | 1.6 | 0.0 | 0.00 | 0.00 | 0.05 | 90 | 1013.0 |
| 20260902184543 | 15 | 221 | 1.6 | 0.0 | 0.00 | 0.00 | 0.05 | 90 | 1012.9 |
| 20260902183043 | 15 | 214 | 3.2 | 0.0 | 0.00 | 0.00 | 0.05 | 90 | 1012.6 |
| 20260902181549 | 15 | 232 | 1.6 | 0.0 | 0.00 | 0.00 | 0.05 | 89 | 1012.5 |
| 20260902180044 | 16 | 227 | 1.6 | 0.0 | 0.00 | 0.00 | 0.05 | 89 | 1012.6 |
| 20260902174544 | 16 | 223 | 1.6 | 0.0 | 0.00 | 0.00 | 0.05 | 89 | 1012.5 |
| 20260902173042 | 16 | 234 | 3.2 | 0.0 | 0.00 | 0.00 | 0.05 | 89 | 1012.6 |
| 20260902171603 | 16 | 227 | 1.6 | 0.0 | 0.00 | 0.00 | 0.05 | 89 | 1012.6 |
| 20260902170039 | 16 | 240 | 3.2 | 0.0 | 0.00 | 0.00 | 0.05 | 89 | 1012.5 |
| 20260902164537 | 16 | 244 | 3.2 | 0.0 | 0.00 | 0.00 | 0.05 | 89 | 1012.7 |
| 20260902163036 | 16 | 249 | 3.2 | 0.0 | 0.00 | 0.00 | 0.05 | 88 | 1012.8 |
| 20260902161539 | 16 | 231 | 4.8 | 0.0 | 0.00 | 0.00 | 0.05 | 89 | 1012.9 |
| 20260902160041 | 16 | 239 | 3.2 | 0.0 | 0.00 | 0.00 | 0.05 | 89 | 1012.8 |
| 20260902154536 | 16 | 216 | 1.6 | 0.0 | 0.00 | 0.00 | 0.05 | 88 | 1012.8 |
| 20260902153033 | 16 | 234 | 1.6 | 0.0 | 0.00 | 0.00 | 0.05 | 89 | 1012.8 |
| 20260902151533 | 16 | 232 | 4.8 | 0.0 | 0.00 | 0.00 | 0.05 | 89 | 1013.0 |
| 20260902150031 | 16 | 219 | 3.2 | 0.0 | 0.00 | 0.00 | 0.05 | 89 | 1013.1 |
| 20260902144534 | 16 | 247 | 3.2 | 0.0 | 0.00 | 0.00 | 0.05 | 89 | 1013.0 |
| 20260902143031 | 16 | 234 | 3.2 | 0.0 | 0.00 | 0.00 | 0.05 | 90 | 1013.0 |
| 20260902141537 | 16 | 223 | 3.2 | 0.0 | 0.00 | 0.00 | 0.05 | 90 | 1013.1 |
| 20260902140028 | 16 | 226 | 1.6 | 0.0 | 0.00 | 0.00 | 0.05 | 89 | 1013.1 |
| 20260902134528 | 16 | 222 | 1.6 | 0.0 | 0.00 | 0.00 | 0.05 | 88 | 1013.2 |
| 20260902133031 | 15 | 245 | 0.0 | 0.0 | 0.00 | 0.00 | 0.05 | 88 | 1013.2 |
| 20260902131527 | 15 | 246 | 0.0 | 0.0 | 0.00 | 0.00 | 0.05 | 86 | 1013.3 |
| 20260902130032 | 16 | 255 | 0.0 | 0.0 | 0.00 | 0.00 | 0.05 | 84 | 1013.5 |
| 20260902124526 | 18 | 261 | 6.4 | 0.0 | 0.00 | 0.00 | 0.05 | 80 | 1013.6 |
| 20260902123026 | 19 | 234 | 4.8 | 0.0 | 0.00 | 0.00 | 0.05 | 80 | 1013.1 |
| 20260902121525 | 20 | 221 | 4.8 | 0.0 | 0.00 | 0.00 | 0.05 | 76 | 1013.1 |
| 20260902120024 | 20 | 238 | 3.2 | 0.0 | 0.00 | 0.00 | 0.05 | 75 | 1013.2 |
| 20260902114527 | 20 | 221 | 3.2 | 0.0 | 0.00 | 0.00 | 0.05 | 74 | 1013.2 |
| 20260902113027 | 20 | 227 | 4.8 | 0.0 | 0.00 | 0.00 | 0.05 | 72 | 1013.3 |
| 20260902111523 | 20 | 229 | 3.2 | 0.0 | 0.00 | 0.00 | 0.05 | 71 | 1013.4 |
| 20260902110023 | 21 | 244 | 3.2 | 0.0 | 0.00 | 0.00 | 0.05 | 71 | 1013.4 |
| 20260902104526 | 20 | 215 | 6.4 | 0.0 | 0.00 | 0.00 | 0.05 | 73 | 1013.4 |
| 20260902103019 | 20 | 229 | 1.6 | 0.0 | 0.00 | 0.00 | 0.05 | 74 | 1013.4 |
| 20260902101519 | 20 | 214 | 4.8 | 0.0 | 0.00 | 0.00 | 0.05 | 75 | 1013.4 |
| 20260902100018 | 20 | 215 | 1.6 | 0.0 | 0.00 | 0.00 | 0.05 | 76 | 1013.4 |
| 20260902094516 | 20 | 192 | 1.6 | 0.0 | 0.00 | 0.00 | 0.05 | 76 | 1013.4 |
| 20260902093015 | 20 | 224 | 3.2 | 0.0 | 0.00 | 0.00 | 0.05 | 79 | 1013.4 |
| 20260902091515 | 19 | 217 | 8.0 | 0.0 | 0.00 | 0.00 | 0.05 | 78 | 1013.5 |
| 20260902090014 | 20 | 238 | 3.2 | 0.0 | 0.00 | 0.00 | 0.03 | 79 | 1013.5 |
| 20260902084516 | 19 | 225 | 3.2 | 0.0 | 0.00 | 0.00 | 0.03 | 81 | 1013.5 |
| 20260902083006 | 18 | 229 | 1.6 | 0.0 | 0.00 | 0.00 | 0.03 | 83 | 1013.5 |
| 20260902081504 | 18 | 227 | 1.6 | 0.0 | 0.00 | 0.00 | 0.03 | 84 | 1013.4 |
| 20260902080002 | 17 | 244 | 1.6 | 0.0 | 0.00 | 0.00 | 0.03 | 86 | 1013.5 |
| 20260902074612 | 17 | 238 | 1.6 | 0.0 | 0.00 | 0.00 | 0.03 | 87 | 1013.4 |
| 20260902073057 | 17 | 219 | 3.2 | 0.0 | 0.00 | 0.00 | 0.03 | 88 | 1013.3 |
| 20260902071557 | 17 | 227 | 3.2 | 0.0 | 0.00 | 0.00 | 0.03 | 88 | 1013.2 |
| 20260902070053 | 16 | 222 | 3.2 | 0.0 | 0.00 | 0.00 | 0.03 | 89 | 1013.2 |
| 20260902064553 | 16 | 216 | 4.8 | 0.0 | 0.00 | 0.00 | 0.03 | 89 | 1013.1 |
| 20260902063110 | 16 | 225 | 3.2 | 0.0 | 0.00 | 0.00 | 0.03 | 90 | 1013.2 |
| 20260902061553 | 15 | 215 | 3.2 | 0.0 | 0.00 | 0.00 | 0.03 | 90 | 1013.1 |
| 20260902060105 | 15 | 229 | 1.6 | 0.0 | 0.00 | 0.00 | 0.03 | 90 | 1013.1 |
| 20260902054603 | 15 | 218 | 1.6 | 0.0 | 0.00 | 0.00 | 0.03 | 90 | 1013.1 |
| 20260902053047 | 15 | 221 | 1.6 | 0.0 | 0.00 | 0.00 | 0.03 | 91 | 1013.1 |
| 20260902051552 | 15 | 229 | 3.2 | 0.0 | 0.00 | 0.00 | 0.03 | 91 | 1013.1 |
| 20260902050046 | 15 | 217 | 1.6 | 0.0 | 0.00 | 0.00 | 0.03 | 91 | 1013.1 |
| 20260902044546 | 15 | 226 | 0.0 | 0.0 | 0.00 | 0.00 | 0.03 | 91 | 1013.1 |
| 20260902043105 | 15 | 240 | 0.0 | 0.0 | 0.00 | 0.00 | 0.03 | 91 | 1013.2 |
| 20260902041600 | 15 | 225 | 1.6 | 0.0 | 0.00 | 0.00 | 0.03 | 91 | 1013.1 |
| 20260902040045 | 14 | 238 | 1.6 | 0.0 | 0.00 | 0.00 | 0.03 | 91 | 1013.3 |
| 20260902034550 | 14 | 259 | 0.0 | 0.0 | 0.00 | 0.00 | 0.03 | 91 | 1013.2 |
| 20260902033046 | 14 | 226 | 1.6 | 0.0 | 0.00 | 0.00 | 0.03 | 91 | 1013.3 |
| 20260902031542 | 13 | 225 | 0.0 | 0.0 | 0.00 | 0.00 | 0.03 | 90 | 1013.4 |
| 20260902030044 | 13 | 249 | 0.0 | 0.0 | 0.00 | 0.00 | 0.03 | 90 | 1013.4 |
| 20260902024542 | 13 | 259 | 0.0 | 0.0 | 0.00 | 0.00 | 0.03 | 90 | 1013.5 |
| 20260902023041 | 13 | 280 | 0.0 | 0.0 | 0.00 | 0.00 | 0.03 | 89 | 1013.4 |
| 20260902021540 | 13 | 280 | 0.0 | 0.0 | 0.00 | 0.00 | 0.03 | 89 | 1013.4 |
| 20260902020043 | 13 | 280 | 0.0 | 0.0 | 0.00 | 0.00 | 0.03 | 88 | 1013.3 |
| 20260902014548 | 13 | 280 | 0.0 | 0.0 | 0.00 | 0.00 | 0.03 | 88 | 1013.3 |